Meteo orario Koziy Rog

Oggi, 6 Marzo, Sabato

Tempo Temperatura Precipitazioni Vento Pressione Umidità
00:00 -8°C° 0 mm 3 m/s 751 mm Hg 77%
01:00 -8°C° 0 mm 2 m/s 752 mm Hg 75%
02:00 -8°C° 0 mm 2 m/s 752 mm Hg 74%
03:00 -8°C° 0 mm 2 m/s 752 mm Hg 74%
04:00 -8°C° 0 mm 2 m/s 752 mm Hg 74%
05:00 -8°C° 0 mm 2 m/s 752 mm Hg 75%
06:00 -7°C° 0 mm 2 m/s 752 mm Hg 78%
07:00 -7°C° 0 mm 2 m/s 753 mm Hg 82%
08:00 -6°C° 0 mm 2 m/s 753 mm Hg 86%
09:00 -6°C° 0.1 mm 3 m/s 753 mm Hg 84%
10:00 -5°C° 0.1 mm 3 m/s 753 mm Hg 81%
11:00 -5°C° 0.1 mm 3 m/s 753 mm Hg 79%
12:00 -4°C° 0.1 mm 3 m/s 753 mm Hg 76%
13:00 -4°C° 0.1 mm 3 m/s 753 mm Hg 72%
14:00 -2°C° 0.1 mm 3 m/s 753 mm Hg 68%
15:00 -4°C° 0 mm 3 m/s 753 mm Hg 70%
16:00 -3°C° 0 mm 2 m/s 753 mm Hg 71%
17:00 -4°C° 0 mm 2 m/s 753 mm Hg 72%
18:00 -4°C° 0 mm 2 m/s 753 mm Hg 74%
19:00 -6°C° 0 mm 3 m/s 753 mm Hg 76%
20:00 -7°C° 0 mm 3 m/s 753 mm Hg 77%
21:00 -7°C° 0 mm 3 m/s 752 mm Hg 78%
22:00 -8°C° 0 mm 4 m/s 752 mm Hg 78%
23:00 -8°C° 0 mm 4 m/s 751 mm Hg 79%

Domani, 7 Marzo, Domenica

Tempo Temperatura Precipitazioni Vento Pressione Umidità
00:00 -8°C° 0 mm 5 m/s 751 mm Hg 77%
01:00 -7°C° 0 mm 5 m/s 750 mm Hg 76%
02:00 -8°C° 0 mm 6 m/s 749 mm Hg 74%
03:00 -8°C° 0 mm 7 m/s 748 mm Hg 74%
04:00 -7°C° 0 mm 7 m/s 747 mm Hg 74%
05:00 -7°C° 0 mm 8 m/s 746 mm Hg 74%
06:00 -6°C° 0 mm 8 m/s 745 mm Hg 76%
07:00 -6°C° 0 mm 9 m/s 744 mm Hg 78%
08:00 -5°C° 0 mm 9 m/s 742 mm Hg 80%
09:00 -5°C° 0 mm 10 m/s 742 mm Hg 84%
10:00 -4°C° 0 mm 10 m/s 742 mm Hg 87%
11:00 -4°C° 0 mm 11 m/s 741 mm Hg 90%
12:00 -4°C° 0.4 mm 10 m/s 741 mm Hg 87%
13:00 -4°C° 0.4 mm 8 m/s 742 mm Hg 84%
14:00 -3°C° 0.4 mm 7 m/s 742 mm Hg 81%
15:00 -3°C° 0 mm 6 m/s 741 mm Hg 80%
16:00 -2°C° 0 mm 5 m/s 741 mm Hg 79%
17:00 -2°C° 0 mm 4 m/s 741 mm Hg 78%
18:00 -3°C° 0.2 mm 4 m/s 741 mm Hg 83%
19:00 -4°C° 0.2 mm 5 m/s 741 mm Hg 87%
20:00 -4°C° 0.2 mm 5 m/s 741 mm Hg 92%
21:00 -5°C° 0.2 mm 5 m/s 741 mm Hg 86%
22:00 -5°C° 0.2 mm 6 m/s 741 mm Hg 79%
23:00 -6°C° 0.2 mm 6 m/s 741 mm Hg 73%

Dopodomani, 8 Marzo, Lunedi

Tempo Temperatura Precipitazioni Vento Pressione Umidità
00:00 -6°C° 0 mm 6 m/s 741 mm Hg 74%
01:00 -8°C° 0 mm 6 m/s 742 mm Hg 76%
02:00 -7°C° 0 mm 5 m/s 742 mm Hg 77%
03:00 -8°C° 0 mm 5 m/s 742 mm Hg 78%
04:00 -8°C° 0 mm 4 m/s 742 mm Hg 79%
05:00 -9°C° 0 mm 4 m/s 742 mm Hg 80%
06:00 -9°C° 0 mm 4 m/s 743 mm Hg 76%
07:00 -9°C° 0 mm 4 m/s 743 mm Hg 73%
08:00 -9°C° 0 mm 4 m/s 744 mm Hg 70%
09:00 -8°C° 0 mm 4 m/s 744 mm Hg 65%
10:00 -8°C° 0 mm 4 m/s 744 mm Hg 60%
11:00 -7°C° 0 mm 4 m/s 745 mm Hg 55%
12:00 -6°C° 0 mm 5 m/s 745 mm Hg 54%
13:00 -6°C° 0 mm 5 m/s 745 mm Hg 53%
14:00 -5°C° 0 mm 5 m/s 745 mm Hg 51%
15:00 -5°C° 0 mm 4 m/s 746 mm Hg 56%
16:00 -5°C° 0 mm 4 m/s 746 mm Hg 60%
17:00 -5°C° 0 mm 3 m/s 746 mm Hg 65%
18:00 -6°C° 0 mm 3 m/s 747 mm Hg 69%
19:00 -6°C° 0 mm 3 m/s 747 mm Hg 73%
20:00 -7°C° 0 mm 3 m/s 748 mm Hg 77%
21:00 -7°C° 0 mm 3 m/s 748 mm Hg 79%
22:00 -8°C° 0 mm 3 m/s 748 mm Hg 81%
23:00 -7°C° 0 mm 2 m/s 749 mm Hg 83%

9 Marzo, Martedi

Tempo Temperatura Precipitazioni Vento Pressione Umidità
00:00 -8°C° 0 mm 3 m/s 749 mm Hg 84%
01:00 -9°C° 0 mm 3 m/s 749 mm Hg 84%
02:00 -9°C° 0 mm 3 m/s 750 mm Hg 84%
03:00 -9°C° 0 mm 3 m/s 750 mm Hg 84%
04:00 -10°C° 0 mm 3 m/s 751 mm Hg 84%
05:00 -10°C° 0 mm 3 m/s 751 mm Hg 84%
06:00 -10°C° 0 mm 3 m/s 752 mm Hg 82%
07:00 -11°C° 0 mm 4 m/s 752 mm Hg 81%
08:00 -11°C° 0 mm 4 m/s 753 mm Hg 79%
09:00 -11°C° 0 mm 4 m/s 753 mm Hg 73%
10:00 -9°C° 0 mm 3 m/s 753 mm Hg 68%
11:00 -8°C° 0 mm 3 m/s 754 mm Hg 63%
12:00 -7°C° 0 mm 3 m/s 754 mm Hg 59%
13:00 -7°C° 0 mm 3 m/s 754 mm Hg 56%
14:00 -6°C° 0 mm 3 m/s 754 mm Hg 53%
15:00 -6°C° 0 mm 3 m/s 754 mm Hg 55%
16:00 -6°C° 0 mm 3 m/s 754 mm Hg 58%
17:00 -5°C° 0 mm 2 m/s 754 mm Hg 61%
18:00 -6°C° 0 mm 3 m/s 754 mm Hg 64%
19:00 -7°C° 0 mm 3 m/s 754 mm Hg 67%
20:00 -7°C° 0 mm 3 m/s 755 mm Hg 70%
21:00 -8°C° 0 mm 3 m/s 755 mm Hg 72%
22:00 -8°C° 0 mm 3 m/s 755 mm Hg 73%
23:00 -8°C° 0 mm 3 m/s 755 mm Hg 75%

10 Marzo, Mercoledi

Tempo Temperatura Precipitazioni Vento Pressione Umidità
00:00 -8°C° 0 mm 3 m/s 754 mm Hg 75%
01:00 -8°C° 0 mm 3 m/s 754 mm Hg 75%
02:00 -8°C° 0 mm 3 m/s 754 mm Hg 75%
03:00 -9°C° 0 mm 3 m/s 754 mm Hg 75%
04:00 -9°C° 0 mm 3 m/s 753 mm Hg 75%
05:00 -9°C° 0 mm 3 m/s 753 mm Hg 74%
06:00 -8°C° 0 mm 3 m/s 753 mm Hg 72%
07:00 -8°C° 0 mm 3 m/s 753 mm Hg 70%
08:00 -8°C° 0 mm 4 m/s 752 mm Hg 68%
09:00 -7°C° 0 mm 4 m/s 752 mm Hg 64%
10:00 -6°C° 0 mm 5 m/s 752 mm Hg 59%
11:00 -5°C° 0 mm 5 m/s 751 mm Hg 54%
12:00 -4°C° 0 mm 5 m/s 751 mm Hg 53%
13:00 -4°C° 0 mm 5 m/s 751 mm Hg 52%
14:00 -2°C° 0 mm 5 m/s 750 mm Hg 51%
15:00 -2°C° 0 mm 4 m/s 750 mm Hg 55%
16:00 -2°C° 0 mm 3 m/s 749 mm Hg 58%
17:00 -2°C° 0 mm 3 m/s 749 mm Hg 62%
18:00 -2°C° 0 mm 3 m/s 749 mm Hg 64%
19:00 -4°C° 0 mm 3 m/s 748 mm Hg 67%
20:00 -5°C° 0 mm 3 m/s 748 mm Hg 70%
21:00 -5°C° 0 mm 3 m/s 748 mm Hg 70%
22:00 -5°C° 0 mm 4 m/s 747 mm Hg 71%
23:00 -5°C° 0 mm 4 m/s 747 mm Hg 71%

11 Marzo, Giovedi

Tempo Temperatura Precipitazioni Vento Pressione Umidità
00:00 -5°C° 0 mm 4 m/s 747 mm Hg 73%
01:00 -5°C° 0 mm 4 m/s 746 mm Hg 74%
02:00 -5°C° 0 mm 4 m/s 745 mm Hg 76%
03:00 -6°C° 0 mm 5 m/s 745 mm Hg 78%
04:00 -5°C° 0 mm 5 m/s 744 mm Hg 80%
05:00 -5°C° 0 mm 5 m/s 743 mm Hg 82%
06:00 -5°C° 0 mm 6 m/s 743 mm Hg 83%
07:00 -4°C° 0 mm 6 m/s 742 mm Hg 84%
08:00 -4°C° 0 mm 7 m/s 741 mm Hg 85%
09:00 -4°C° 0 mm 8 m/s 741 mm Hg 84%
10:00 -2°C° 0 mm 8 m/s 740 mm Hg 84%
11:00 -1°C° 0 mm 9 m/s 739 mm Hg 84%
12:00 -1°C° 0.1 mm 9 m/s 738 mm Hg 87%
13:00 -1°C° 0.1 mm 9 m/s 738 mm Hg 90%
14:00 -1°C° 0.1 mm 9 m/s 737 mm Hg 92%
15:00 -1°C° 0.5 mm 9 m/s 736 mm Hg 92%
16:00 0°C° 0.5 mm 9 m/s 735 mm Hg 93%
17:00 0°C° 0.5 mm 8 m/s 734 mm Hg 93%
18:00 +1°C° 0.2 mm 9 m/s 734 mm Hg 92%
19:00 +1°C° 0.2 mm 9 m/s 733 mm Hg 91%
20:00 +1°C° 0.2 mm 9 m/s 733 mm Hg 91%
21:00 +1°C° 0.3 mm 9 m/s 732 mm Hg 90%
22:00 +2°C° 0.3 mm 9 m/s 732 mm Hg 90%
23:00 +2°C° 0.3 mm 9 m/s 732 mm Hg 89%
Mostrare altro